Location: Waco, TX
(31.5480°N, 97.1670°W)
Time: 12:08:30
(UTC-05:00)

ISS - Pass Details

Date: 11 May 2021
Orbit: 417 x 422 km, 51.6° (Epoch: 15 May)

Event Time Altitude Azimuth Distance (km) Brightness Sun altitude
Rises 06:01:35 0° 330° (NNW) 2,368 0.0 -7.3°
Reaches altitude 10° 06:04:09 10° 349° (N) 1,502 -0.7 -6.8°
Maximum altitude 06:06:35 18° 36° (NE) 1,099 -0.6 -6.3°
Drops below altitude 10° 06:09:00 10° 82° (E) 1,499 0.5 -5.9°
Sets 06:11:33 0° 102° (ESE) 2,360 1.0 -5.4°
